����������;��������(kVARh)
2016-06-20 00:00;0
2016-06-20 00:15;0
2016-06-20 00:30;0
2016-06-20 00:45;0
2016-06-20 01:00;0
2016-06-20 01:15;1,3
2016-06-20 01:30;2,2
2016-06-20 01:45;0,35
2016-06-20 02:00;0
2016-06-20 02:15;0
2016-06-20 02:30;0
2016-06-20 02:45;0
2016-06-20 03:00;0
2016-06-20 03:15;0
2016-06-20 03:30;0
2016-06-20 03:45;0
2016-06-20 04:00;0
2016-06-20 04:15;0
2016-06-20 04:30;0
2016-06-20 04:45;0
2016-06-20 05:00;0
2016-06-20 05:15;0
2016-06-20 05:30;0
2016-06-20 05:45;0
2016-06-20 06:00;0
2016-06-20 06:15;0,2
2016-06-20 06:30;0,15
2016-06-20 06:45;0,35
2016-06-20 07:00;1,05
2016-06-20 07:15;6,1
2016-06-20 07:30;3,2
2016-06-20 07:45;7,7
2016-06-20 08:00;7
2016-06-20 08:15;9,15
2016-06-20 08:30;15,3
2016-06-20 08:45;16,95
2016-06-20 09:00;19
2016-06-20 09:15;20,45
2016-06-20 09:30;22,3
2016-06-20 09:45;21,75
2016-06-20 10:00;19,35
2016-06-20 10:15;21,05
2016-06-20 10:30;20
2016-06-20 10:45;19,85
2016-06-20 11:00;22,6
2016-06-20 11:15;24,3
2016-06-20 11:30;20,85
2016-06-20 11:45;18,6
2016-06-20 12:00;15,9
2016-06-20 12:15;20,4
2016-06-20 12:30;20,45
2016-06-20 12:45;22,3
2016-06-20 13:00;22,3
2016-06-20 13:15;20,7
2016-06-20 13:30;22,45
2016-06-20 13:45;22,05
2016-06-20 14:00;22,15
2016-06-20 14:15;23,95
2016-06-20 14:30;25,15
2016-06-20 14:45;24,65
2016-06-20 15:00;26,5
2016-06-20 15:15;25,35
2016-06-20 15:30;25
2016-06-20 15:45;24,9
2016-06-20 16:00;25,8
2016-06-20 16:15;27,65
2016-06-20 16:30;25,85
2016-06-20 16:45;28
2016-06-20 17:00;26,9
2016-06-20 17:15;25,5
2016-06-20 17:30;25,55
2016-06-20 17:45;23,55
2016-06-20 18:00;23,1
2016-06-20 18:15;23,85
2016-06-20 18:30;20,95
2016-06-20 18:45;24
2016-06-20 19:00;25,6
2016-06-20 19:15;19,45
2016-06-20 19:30;18,55
2016-06-20 19:45;18,8
2016-06-20 20:00;15,2
2016-06-20 20:15;15,55
2016-06-20 20:30;20,35
2016-06-20 20:45;22,6
2016-06-20 21:00;18,9
2016-06-20 21:15;16,1
2016-06-20 21:30;14,3
2016-06-20 21:45;12,2
2016-06-20 22:00;10,7
2016-06-20 22:15;6,05
2016-06-20 22:30;5,3
2016-06-20 22:45;4,05
2016-06-20 23:00;1,25
2016-06-20 23:15;0,1
2016-06-20 23:30;1,35
2016-06-20 23:45;2,15
2016-06-21 00:00;0
2016-06-21 00:15;0
2016-06-21 00:30;0
2016-06-21 00:45;0,9
2016-06-21 01:00;0,4
2016-06-21 01:15;0,15
2016-06-21 01:30;0
2016-06-21 01:45;0
2016-06-21 02:00;0,05
2016-06-21 02:15;0
2016-06-21 02:30;0
2016-06-21 02:45;0
2016-06-21 03:00;0
2016-06-21 03:15;0
2016-06-21 03:30;0
2016-06-21 03:45;0
2016-06-21 04:00;0
2016-06-21 04:15;0
2016-06-21 04:30;0
2016-06-21 04:45;0
2016-06-21 05:00;2,9
2016-06-21 05:15;10,55
2016-06-21 05:30;4,7
2016-06-21 05:45;2,4
2016-06-21 06:00;5,55
2016-06-21 06:15;12,2
2016-06-21 06:30;5,45
2016-06-21 06:45;5,7
2016-06-21 07:00;5,7
2016-06-21 07:15;9,7
2016-06-21 07:30;9,5
2016-06-21 07:45;16,4
2016-06-21 08:00;15,4
2016-06-21 08:15;18,55
2016-06-21 08:30;18,9
2016-06-21 08:45;25,15
2016-06-21 09:00;37,4
2016-06-21 09:15;37,45
2016-06-21 09:30;36,85
2016-06-21 09:45;36,65
2016-06-21 10:00;40,35
2016-06-21 10:15;52,7
2016-06-21 10:30;47,9
2016-06-21 10:45;51,2
2016-06-21 11:00;52,7
2016-06-21 11:15;53,9
2016-06-21 11:30;57,15
2016-06-21 11:45;59,05
2016-06-21 12:00;62,4
2016-06-21 12:15;65
2016-06-21 12:30;69,95
2016-06-21 12:45;75,25
2016-06-21 13:00;76,35
2016-06-21 13:15;75,65
2016-06-21 13:30;74,9
2016-06-21 13:45;74,9
2016-06-21 14:00;77,5
2016-06-21 14:15;82,2
2016-06-21 14:30;76,35
2016-06-21 14:45;76,45
2016-06-21 15:00;71,75
2016-06-21 15:15;80,95
2016-06-21 15:30;72,7
2016-06-21 15:45;67,3
2016-06-21 16:00;59,9
2016-06-21 16:15;61,85
2016-06-21 16:30;50,8
2016-06-21 16:45;48,95
2016-06-21 17:00;46,8
2016-06-21 17:15;41,55
2016-06-21 17:30;38,45
2016-06-21 17:45;35,7
2016-06-21 18:00;32,7
2016-06-21 18:15;31,55
2016-06-21 18:30;27,15
2016-06-21 18:45;26
2016-06-21 19:00;20,95
2016-06-21 19:15;14,05
2016-06-21 19:30;18,1
2016-06-21 19:45;18,8
2016-06-21 20:00;19,2
2016-06-21 20:15;13,65
2016-06-21 20:30;11,85
2016-06-21 20:45;11,55
2016-06-21 21:00;14,05
2016-06-21 21:15;16,25
2016-06-21 21:30;15,6
2016-06-21 21:45;14,2
2016-06-21 22:00;10,3
2016-06-21 22:15;8,8
2016-06-21 22:30;10,15
2016-06-21 22:45;11,55
2016-06-21 23:00;14,15
2016-06-21 23:15;13,25
2016-06-21 23:30;5,05
2016-06-21 23:45;0,4
2016-06-22 00:00;0
2016-06-22 00:15;0
2016-06-22 00:30;0
2016-06-22 00:45;0
2016-06-22 01:00;0
2016-06-22 01:15;0
2016-06-22 01:30;0,15
2016-06-22 01:45;0
2016-06-22 02:00;0
2016-06-22 02:15;0
2016-06-22 02:30;0
2016-06-22 02:45;0
2016-06-22 03:00;0
2016-06-22 03:15;0
2016-06-22 03:30;0
2016-06-22 03:45;0
2016-06-22 04:00;0,1
2016-06-22 04:15;0
2016-06-22 04:30;0
2016-06-22 04:45;0
2016-06-22 05:00;0
2016-06-22 05:15;0
2016-06-22 05:30;4,15
2016-06-22 05:45;12,9
2016-06-22 06:00;17,25
2016-06-22 06:15;23,05
2016-06-22 06:30;16,25
2016-06-22 06:45;14,75
2016-06-22 07:00;15,1
2016-06-22 07:15;15,6
2016-06-22 07:30;16,45
2016-06-22 07:45;20,1
2016-06-22 08:00;33
2016-06-22 08:15;32,6
2016-06-22 08:30;35,45
2016-06-22 08:45;32,95
2016-06-22 09:00;34,8
2016-06-22 09:15;42,2
2016-06-22 09:30;49,6
2016-06-22 09:45;40,75
2016-06-22 10:00;43,95
2016-06-22 10:15;51,05
2016-06-22 10:30;55,6
2016-06-22 10:45;51,1
2016-06-22 11:00;51,5
2016-06-22 11:15;52
2016-06-22 11:30;57,4
2016-06-22 11:45;59,3
2016-06-22 12:00;47,4
2016-06-22 12:15;68,1
2016-06-22 12:30;65,55
2016-06-22 12:45;63,3
2016-06-22 13:00;61,65
2016-06-22 13:15;60,75
2016-06-22 13:30;62,85
2016-06-22 13:45;61,25
2016-06-22 14:00;61,95
2016-06-22 14:15;62
2016-06-22 14:30;63,6
2016-06-22 14:45;63,8
2016-06-22 15:00;63,75
2016-06-22 15:15;60,75
2016-06-22 15:30;63
2016-06-22 15:45;57,05
2016-06-22 16:00;57,05
2016-06-22 16:15;57,95
2016-06-22 16:30;54,45
2016-06-22 16:45;52,55
2016-06-22 17:00;49,35
2016-06-22 17:15;37,7
2016-06-22 17:30;38,8
2016-06-22 17:45;34,7
2016-06-22 18:00;31,65
2016-06-22 18:15;31,85
2016-06-22 18:30;28,3
2016-06-22 18:45;26,4
2016-06-22 19:00;22,4
2016-06-22 19:15;24,2
2016-06-22 19:30;21,5
2016-06-22 19:45;14,3
2016-06-22 20:00;12,5
2016-06-22 20:15;12,1
2016-06-22 20:30;14,2
2016-06-22 20:45;3,7
2016-06-22 21:00;1
2016-06-22 21:15;0,55
2016-06-22 21:30;0,6
2016-06-22 21:45;0,45
2016-06-22 22:00;0,55
2016-06-22 22:15;0,4
2016-06-22 22:30;0,45
2016-06-22 22:45;0,6
2016-06-22 23:00;1
2016-06-22 23:15;0
2016-06-22 23:30;0
2016-06-22 23:45;1,05
2016-06-23 00:00;0
2016-06-23 00:15;0
2016-06-23 00:30;0
2016-06-23 00:45;0
2016-06-23 01:00;0
2016-06-23 01:15;0
2016-06-23 01:30;0
2016-06-23 01:45;0
2016-06-23 02:00;0
2016-06-23 02:15;0
2016-06-23 02:30;0
2016-06-23 02:45;0
2016-06-23 03:00;0
2016-06-23 03:15;0
2016-06-23 03:30;0
2016-06-23 03:45;0
2016-06-23 04:00;0
2016-06-23 04:15;0
2016-06-23 04:30;0
2016-06-23 04:45;0
2016-06-23 05:00;0
2016-06-23 05:15;0
2016-06-23 05:30;0
2016-06-23 05:45;0
2016-06-23 06:00;0
2016-06-23 06:15;1,35
2016-06-23 06:30;0,4
2016-06-23 06:45;5,45
2016-06-23 07:00;6,9
2016-06-23 07:15;14,65
2016-06-23 07:30;11,2
2016-06-23 07:45;26,9
2016-06-23 08:00;28,55
2016-06-23 08:15;27,05
2016-06-23 08:30;25,8
2016-06-23 08:45;34,85
2016-06-23 09:00;27,35
2016-06-23 09:15;32,65
2016-06-23 09:30;30,2
2016-06-23 09:45;37,45
2016-06-23 10:00;38,6
2016-06-23 10:15;50,9
2016-06-23 10:30;52,4
2016-06-23 10:45;68,15
2016-06-23 11:00;73,15
2016-06-23 11:15;72,6
2016-06-23 11:30;63,75
2016-06-23 11:45;61,55
2016-06-23 12:00;71,65
2016-06-23 12:15;64,2
2016-06-23 12:30;72,95
2016-06-23 12:45;64,55
2016-06-23 13:00;68,8
2016-06-23 13:15;65,15
2016-06-23 13:30;67,2
2016-06-23 13:45;65,55
2016-06-23 14:00;69,65
2016-06-23 14:15;66,7
2016-06-23 14:30;68,95
2016-06-23 14:45;67,25
2016-06-23 15:00;62,4
2016-06-23 15:15;66,95
2016-06-23 15:30;65,65
2016-06-23 15:45;59,1
2016-06-23 16:00;57,5
2016-06-23 16:15;53
2016-06-23 16:30;51,85
2016-06-23 16:45;54,15
2016-06-23 17:00;52,3
2016-06-23 17:15;42,9
2016-06-23 17:30;38,7
2016-06-23 17:45;37,6
2016-06-23 18:00;35,5
2016-06-23 18:15;35,2
2016-06-23 18:30;32,5
2016-06-23 18:45;31,65
2016-06-23 19:00;27,6
2016-06-23 19:15;26,8
2016-06-23 19:30;26,75
2016-06-23 19:45;24,8
2016-06-23 20:00;24,25
2016-06-23 20:15;18,45
2016-06-23 20:30;17,1
2016-06-23 20:45;19,6
2016-06-23 21:00;22,85
2016-06-23 21:15;21,75
2016-06-23 21:30;22,05
2016-06-23 21:45;18
2016-06-23 22:00;19,6
2016-06-23 22:15;18,3
2016-06-23 22:30;7,35
2016-06-23 22:45;2,1
2016-06-23 23:00;3,15
2016-06-23 23:15;2,85
2016-06-23 23:30;4,6
2016-06-23 23:45;0,4
2016-06-24 00:00;0
2016-06-24 00:15;0
2016-06-24 00:30;0
2016-06-24 00:45;0
2016-06-24 01:00;0
2016-06-24 01:15;0
2016-06-24 01:30;0
2016-06-24 01:45;0
2016-06-24 02:00;0
2016-06-24 02:15;0
2016-06-24 02:30;0
2016-06-24 02:45;0
2016-06-24 03:00;0
2016-06-24 03:15;0
2016-06-24 03:30;0
2016-06-24 03:45;0
2016-06-24 04:00;0
2016-06-24 04:15;0,05
2016-06-24 04:30;0
2016-06-24 04:45;0
2016-06-24 05:00;0
2016-06-24 05:15;0
2016-06-24 05:30;0
2016-06-24 05:45;0
2016-06-24 06:00;0
2016-06-24 06:15;2,6
2016-06-24 06:30;7,45
2016-06-24 06:45;4,4
2016-06-24 07:00;7,95
2016-06-24 07:15;7,1
2016-06-24 07:30;6,45
2016-06-24 07:45;10,85
2016-06-24 08:00;19,2
2016-06-24 08:15;30,6
2016-06-24 08:30;32,45
2016-06-24 08:45;36,25
2016-06-24 09:00;34,6
2016-06-24 09:15;40,6
2016-06-24 09:30;46,9
2016-06-24 09:45;49,85
2016-06-24 10:00;43,55
2016-06-24 10:15;44,25
2016-06-24 10:30;41,05
2016-06-24 10:45;47,5
2016-06-24 11:00;46,3
2016-06-24 11:15;42,9
2016-06-24 11:30;47,35
2016-06-24 11:45;52,9
2016-06-24 12:00;52,45
2016-06-24 12:15;52,25
2016-06-24 12:30;56,2
2016-06-24 12:45;61,35
2016-06-24 13:00;62,25
2016-06-24 13:15;50,2
2016-06-24 13:30;54,2
2016-06-24 13:45;55,3
2016-06-24 14:00;57
2016-06-24 14:15;57,2
2016-06-24 14:30;59,1
2016-06-24 14:45;56,95
2016-06-24 15:00;53,35
2016-06-24 15:15;56,6
2016-06-24 15:30;56,8
2016-06-24 15:45;57,7
2016-06-24 16:00;53,4
2016-06-24 16:15;53,6
2016-06-24 16:30;50,45
2016-06-24 16:45;53,3
2016-06-24 17:00;51,6
2016-06-24 17:15;51,05
2016-06-24 17:30;35,5
2016-06-24 17:45;41,5
2016-06-24 18:00;38,1
2016-06-24 18:15;36,25
2016-06-24 18:30;36,75
2016-06-24 18:45;19,75
2016-06-24 19:00;18,5
2016-06-24 19:15;21,55
2016-06-24 19:30;20,2
2016-06-24 19:45;11,8
2016-06-24 20:00;11,9
2016-06-24 20:15;4,35
2016-06-24 20:30;1,55
2016-06-24 20:45;1,4
2016-06-24 21:00;1,75
2016-06-24 21:15;1,15
2016-06-24 21:30;3,5
2016-06-24 21:45;2,3
2016-06-24 22:00;2,85
2016-06-24 22:15;2,2
2016-06-24 22:30;5,1
2016-06-24 22:45;9,15
2016-06-24 23:00;10,65
2016-06-24 23:15;7,9
2016-06-24 23:30;6,15
2016-06-24 23:45;7,8
2016-06-25 00:00;5
2016-06-25 00:15;2,65
2016-06-25 00:30;5,55
2016-06-25 00:45;1,4
2016-06-25 01:00;1,2
2016-06-25 01:15;0,45
2016-06-25 01:30;1,3
2016-06-25 01:45;0
2016-06-25 02:00;0
2016-06-25 02:15;0
2016-06-25 02:30;0
2016-06-25 02:45;0
2016-06-25 03:00;0
2016-06-25 03:15;0
2016-06-25 03:30;0
2016-06-25 03:45;0
2016-06-25 04:00;0
2016-06-25 04:15;0
2016-06-25 04:30;0
2016-06-25 04:45;0
2016-06-25 05:00;0
2016-06-25 05:15;0
2016-06-25 05:30;0
2016-06-25 05:45;0
2016-06-25 06:00;0
2016-06-25 06:15;0
2016-06-25 06:30;0
2016-06-25 06:45;0,05
2016-06-25 07:00;0
2016-06-25 07:15;0
2016-06-25 07:30;0
2016-06-25 07:45;0
2016-06-25 08:00;0
2016-06-25 08:15;0
2016-06-25 08:30;0
2016-06-25 08:45;0
2016-06-25 09:00;0
2016-06-25 09:15;0
2016-06-25 09:30;0,1
2016-06-25 09:45;0,7
2016-06-25 10:00;0,15
2016-06-25 10:15;0,05
2016-06-25 10:30;0
2016-06-25 10:45;5,85
2016-06-25 11:00;7,2
2016-06-25 11:15;5,05
2016-06-25 11:30;16,25
2016-06-25 11:45;17,05
2016-06-25 12:00;13,85
2016-06-25 12:15;11,15
2016-06-25 12:30;12,1
2016-06-25 12:45;11,9
2016-06-25 13:00;10,25
2016-06-25 13:15;12,65
2016-06-25 13:30;10,7
2016-06-25 13:45;0,3
2016-06-25 14:00;0,8
2016-06-25 14:15;0,65
2016-06-25 14:30;5,7
2016-06-25 14:45;6,3
2016-06-25 15:00;6
2016-06-25 15:15;5,65
2016-06-25 15:30;4,25
2016-06-25 15:45;3,5
2016-06-25 16:00;5,65
2016-06-25 16:15;7
2016-06-25 16:30;2,75
2016-06-25 16:45;2,3
2016-06-25 17:00;0,85
2016-06-25 17:15;3,35
2016-06-25 17:30;8,95
2016-06-25 17:45;9,3
2016-06-25 18:00;4,65
2016-06-25 18:15;4,55
2016-06-25 18:30;3,45
2016-06-25 18:45;3,95
2016-06-25 19:00;4,85
2016-06-25 19:15;5,25
2016-06-25 19:30;2,7
2016-06-25 19:45;3,6
2016-06-25 20:00;4,3
2016-06-25 20:15;2,7
2016-06-25 20:30;3,85
2016-06-25 20:45;3,45
2016-06-25 21:00;2,6
2016-06-25 21:15;2,25
2016-06-25 21:30;1,2
2016-06-25 21:45;1,2
2016-06-25 22:00;0,25
2016-06-25 22:15;0,3
2016-06-25 22:30;0,4
2016-06-25 22:45;0
2016-06-25 23:00;2,95
2016-06-25 23:15;1,5
2016-06-25 23:30;0,65
2016-06-25 23:45;0,6
2016-06-26 00:00;0
2016-06-26 00:15;0
2016-06-26 00:30;0
2016-06-26 00:45;0
2016-06-26 01:00;0
2016-06-26 01:15;0
2016-06-26 01:30;0
2016-06-26 01:45;0,1
2016-06-26 02:00;0
2016-06-26 02:15;0
2016-06-26 02:30;0
2016-06-26 02:45;0,05
2016-06-26 03:00;0
2016-06-26 03:15;0,1
2016-06-26 03:30;0,15
2016-06-26 03:45;0,1
2016-06-26 04:00;0,75
2016-06-26 04:15;0
2016-06-26 04:30;0
2016-06-26 04:45;0
2016-06-26 05:00;0
2016-06-26 05:15;0
2016-06-26 05:30;0
2016-06-26 05:45;0
2016-06-26 06:00;0
2016-06-26 06:15;0
2016-06-26 06:30;0,25
2016-06-26 06:45;0
2016-06-26 07:00;0
2016-06-26 07:15;0
2016-06-26 07:30;0
2016-06-26 07:45;0
2016-06-26 08:00;0
2016-06-26 08:15;0
2016-06-26 08:30;0
2016-06-26 08:45;0
2016-06-26 09:00;0
2016-06-26 09:15;0
2016-06-26 09:30;0
2016-06-26 09:45;0
2016-06-26 10:00;0
2016-06-26 10:15;0
2016-06-26 10:30;0
2016-06-26 10:45;0
2016-06-26 11:00;0
2016-06-26 11:15;0
2016-06-26 11:30;0
2016-06-26 11:45;0
2016-06-26 12:00;0
2016-06-26 12:15;0
2016-06-26 12:30;0
2016-06-26 12:45;0
2016-06-26 13:00;0
2016-06-26 13:15;0,05
2016-06-26 13:30;0,35
2016-06-26 13:45;0
2016-06-26 14:00;0
2016-06-26 14:15;0
2016-06-26 14:30;0
2016-06-26 14:45;0
2016-06-26 15:00;0
2016-06-26 15:15;0,05
2016-06-26 15:30;0
2016-06-26 15:45;0
2016-06-26 16:00;0
2016-06-26 16:15;0
2016-06-26 16:30;0,15
2016-06-26 16:45;0,15
2016-06-26 17:00;0,05
2016-06-26 17:15;0
2016-06-26 17:30;0,2
2016-06-26 17:45;0,1
2016-06-26 18:00;0
2016-06-26 18:15;0,15
2016-06-26 18:30;0
2016-06-26 18:45;0,05
2016-06-26 19:00;0,8
2016-06-26 19:15;0,15
2016-06-26 19:30;0,05
2016-06-26 19:45;0
2016-06-26 20:00;0
2016-06-26 20:15;0
2016-06-26 20:30;0
2016-06-26 20:45;0
2016-06-26 21:00;0
2016-06-26 21:15;0
2016-06-26 21:30;0
2016-06-26 21:45;0
2016-06-26 22:00;0
2016-06-26 22:15;0
2016-06-26 22:30;0
2016-06-26 22:45;0
2016-06-26 23:00;0,2
2016-06-26 23:15;0,1
2016-06-26 23:30;0,1
2016-06-26 23:45;0,75

